Temp
17 16 16 16 16 16 16 16 16 16 16 16 16 16 16 16 16 16 16 17 17 17 17 17 16 16 16 16 16 16 16 16 16 16 15 15 16 16 15 15 14 16 16
17 16 16 16 16 16 16 16 16 16 16 16 16 16 16 16 16 16 16 16 17 17 16 16 15 15 15 15 16 16 15 15 15 15 15 15 15 15 15 14 14 16 16
17 15 15 16 16 16 16 16 16 16 16 16 16 16 16 16 16 16 16 16 16 16 15 15 15 15 15 15 16 15 14 15 15 15 14 14 15 15 14 14 15 16 16
17 17 15 16 16 16 16 16 16 16 16 16 16 16 16 16 16 16 16 16 16 16 15 15 15 15 15 15 15 15 14 14 15 14 15 14 13 15 15 15 15 15 15
17 16 16 16 16 16 16 16 15 15 15 15 15 15 16 15 15 15 16 15 14 15 15 15 15 15 15 15 15 15 15 14 14 14 15 14 13 14 15 14 15 14 14
17 16 17 17 17 16 15 15 15 15 15 15 15 15 15 15 15 15 15 14 14 15 15 15 15 15 15 15 15 15 15 15 15 14 14 14 14 14 14 14 14 14 14
17 16 15 17 17 17 17 15 15 15 15 15 15 15 15 15 15 15 15 14 14 15 14 14 14 15 15 15 15 15 15 15 15 14 14 14 14 15 15 15 14 14 15
16 15 15 16 16 16 16 16 15 15 15 15 15 15 15 15 15 15 15 14 14 15 14 14 14 15 15 14 15 15 15 15 14 14 14 14 15 15 14 15 15 15 15
15 15 15 15 16 16 15 16 16 15 15 15 15 15 15 15 14 15 14 14 14 15 14 14 15 15 14 14 14 14 15 15 13 13 14 14 14 14 14 14 14 15 15
15 15 15 15 15 15 14 15 15 15 16 15 14 14 14 14 14 14 14 14 14 14 14 15 15 14 14 14 14 14 14 14 13 14 14 14 13 14 14 14 14 15 15
15 15 15 15 14 14 14 14 15 15 15 15 15 14 14 14 14 14 14 14 14 14 14 15 15 15 14 14 14 13 14 13 13 13 13 13 14 14 14 14 14 14 14
14 14 15 15 15 14 14 15 14 13 15 14 14 13 14 13 14 14 13 14 14 14 14 14 14 14 14 13 14 13 13 13 14 13 12 13 13 14 14 14 14 14 14
14 14 14 15 15 15 14 14 14 13 13 13 13 14 14 13 14 14 13 14 14 14 14 13 13 13 14 12 12 13 13 14 14 14 13 13 13 13 13 14 13 13 13
14 15 15 15 14 14 14 14 14 13 13 13 13 13 13 14 14 14 13 13 14 14 14 13 13 13 14 13 13 12 12 14 14 14 13 13 13 13 13 13 12 13 13
14 15 15 14 14 14 14 14 14 14 14 14 13 12 12 13 13 13 13 13 13 13 14 14 13 13 13 13 13 13 13 14 14 14 13 13 12 13 13 13 13 13 13
15 15 15 14 14 14 14 14 14 14 14 14 13 13 13 12 11 14 12 13 13 13 13 13 14 13 14 13 13 13 13 13 13 13 13 12 12 13 13 12 13 13 13
15 15 15 15 14 14 14 14 13 14 13 13 12 11 12 13 12 11 12 13 13 13 13 13 13 13 13 13 12 13 13 13 13 13 12 11 12 12 12 12 12 13 13
15 15 15 14 14 14 14 13 13 13 13 13 11 11 11 12 13 13 13 13 13 13 13 13 13 13 13 13 12 13 12 12 12 12 12 11 11 12 12 11 12 13 13
15 15 14 14 14 14 13 13 12 12 12 12 11 10 10 11 12 12 12 12 11 12 12 12 12 12 12 12 12 11 11 12 12 12 12 11 11 11 12 12 11 12 12
15 14 14 14 13 13 13 12 12 11 12 11 12 12 11 11 11 11 11 11 10 10 11 12 12 12 12 12 12 12 11 11 11 12 12 11 11 11 11 12 11 11 11
14 13 14 14 13 13 12 12 11 11 11 11 11 11 11 11 10 10 9 9 10 10 10 11 11 11 12 12 12 11 10 10 10 11 11 10 10 11 11 11 11 11 11
13 13 13 13 13 12 11 11 10 9 10 11 11 11 11 10 10 10 10 10 9 8 9 9 10 10 10 11 11 10 9 9 9 10 10 10 10 11 10 10 11 10 10
10 11 13 12 12 11 11 11 11 10 10 10 9 9 10 10 9 9 9 9 9 8 9 8 9 10 10 10 11 11 9 9 9 10 10 10 10 11 10 10 11 10 10
10 11 12 12 11 11 11 10 10 10 10 10 8 8 8 8 9 9 9 9 9 9 8 8 8 9 9 10 10 10 11 11 9 9 9 9 10 10 10 9 10 9 9
10 11 11 11 11 10 10 10 9 10 10 9 8 7 7 7 7 8 9 9 9 8 8 8 8 9 9 9 9 10 10 10 10 10 8 9 9 9 9 9 10 10 9
10 10 10 10 10 9 9 7 8 10 9 9 9 8 9 9 8 9 8 8 8 8 8 7 8 8 9 9 9 9 9 9 9 9 9 8 9 9 9 9 9 9 9
Height
1513 1511 1512 1512 1514 1516 1518 1519 1521 1522 1523 1525 1526 1527 1528 1529 1530 1531 1532 1533 1535 1536 1537 1538 1540 1541 1542 1542 1542 1543 1544 1544 1544 1545 1545 1546 1547 1548 1549 1550 1551 1551 1552
1513 1513 1512 1514 1515 1516 1518 1520 1521 1523 1524 1525 1526 1528 1529 1530 1532 1532 1533 1535 1536 1537 1538 1539 1540 1541 1542 1543 1544 1544 1545 1546 1546 1547 1547 1548 1549 1550 1551 1552 1553 1554 1555
1515 1514 1513 1515 1516 1517 1518 1520 1521 1523 1525 1526 1527 1529 1529 1531 1532 1533 1535 1535 1536 1537 1539 1540 1541 1542 1543 1544 1545 1546 1547 1548 1549 1550 1550 1551 1551 1552 1553 1554 1555 1556 1557
1516 1517 1516 1515 1516 1518 1519 1520 1522 1523 1525 1526 1527 1529 1530 1531 1532 1534 1535 1536 1537 1538 1539 1540 1541 1542 1544 1545 1546 1547 1548 1549 1551 1553 1554 1556 1555 1554 1555 1556 1557 1558 1559
1516 1517 1516 1516 1517 1518 1519 1520 1521 1522 1524 1526 1527 1528 1530 1531 1533 1534 1535 1536 1538 1539 1540 1541 1542 1543 1544 1545 1546 1547 1549 1551 1552 1554 1557 1558 1557 1556 1557 1558 1559 1560 1561
1516 1517 1516 1517 1517 1518 1519 1520 1522 1523 1524 1525 1527 1528 1529 1532 1533 1534 1535 1537 1538 1539 1540 1541 1543 1544 1544 1546 1547 1548 1550 1551 1554 1556 1557 1558 1558 1558 1559 1560 1561 1562 1564
1517 1517 1515 1516 1517 1518 1519 1520 1521 1522 1523 1525 1526 1527 1529 1530 1532 1533 1535 1536 1537 1539 1540 1541 1543 1544 1545 1546 1548 1549 1551 1552 1554 1558 1556 1557 1558 1560 1561 1562 1564 1565 1566
1516 1516 1516 1516 1516 1517 1518 1518 1519 1521 1522 1524 1525 1526 1528 1529 1530 1532 1534 1535 1537 1538 1540 1541 1543 1544 1545 1547 1548 1550 1551 1553 1555 1557 1556 1557 1559 1561 1562 1563 1565 1566 1566
1514 1514 1515 1516 1516 1516 1517 1517 1518 1519 1520 1522 1523 1525 1526 1527 1529 1531 1533 1534 1536 1538 1539 1541 1542 1544 1545 1547 1548 1550 1551 1553 1555 1555 1556 1557 1559 1561 1563 1564 1564 1565 1566
1512 1513 1514 1515 1515 1516 1516 1515 1516 1517 1518 1519 1521 1523 1524 1526 1527 1529 1531 1533 1535 1537 1538 1540 1541 1543 1545 1547 1549 1550 1552 1553 1554 1554 1556 1557 1559 1561 1563 1564 1564 1565 1565
1510 1511 1512 1513 1514 1514 1514 1514 1514 1514 1515 1517 1519 1520 1522 1524 1526 1527 1529 1530 1533 1535 1537 1539 1541 1543 1545 1546 1548 1550 1552 1554 1554 1555 1556 1558 1559 1560 1562 1563 1563 1563 1563
1509 1510 1509 1510 1511 1512 1512 1512 1513 1512 1513 1515 1516 1519 1520 1522 1525 1526 1527 1529 1531 1533 1535 1537 1540 1542 1544 1545 1547 1549 1551 1555 1556 1556 1556 1557 1559 1560 1561 1562 1562 1562 1562
1507 1507 1507 1507 1508 1509 1509 1509 1510 1511 1511 1512 1514 1517 1519 1520 1522 1523 1524 1526 1528 1530 1532 1535 1537 1539 1542 1545 1546 1547 1549 1554 1556 1556 1556 1556 1557 1559 1560 1561 1561 1562 1562
1503 1504 1504 1504 1505 1506 1506 1507 1507 1508 1509 1510 1511 1513 1516 1518 1518 1519 1521 1523 1525 1527 1528 1531 1533 1536 1539 1542 1546 1546 1548 1552 1554 1555 1553 1555 1556 1557 1559 1560 1560 1563 1563
1498 1500 1501 1502 1502 1502 1502 1503 1504 1504 1505 1506 1507 1510 1511 1512 1513 1515 1517 1519 1521 1523 1525 1527 1529 1532 1536 1539 1542 1545 1547 1549 1551 1553 1553 1552 1554 1555 1556 1558 1560 1562 1564
1494 1496 1497 1498 1499 1499 1499 1499 1500 1501 1501 1502 1503 1504 1506 1508 1509 1511 1513 1515 1517 1520 1522 1524 1526 1528 1532 1535 1538 1541 1544 1546 1548 1550 1551 1550 1552 1553 1554 1556 1558 1561 1562
1491 1492 1493 1494 1495 1496 1496 1496 1496 1495 1497 1498 1499 1501 1502 1503 1505 1507 1508 1511 1513 1516 1518 1520 1522 1525 1527 1530 1532 1536 1538 1541 1543 1546 1547 1548 1550 1551 1553 1555 1557 1560 1561
1486 1487 1488 1490 1491 1492 1492 1492 1492 1492 1492 1493 1495 1497 1498 1499 1501 1503 1504 1505 1508 1511 1513 1515 1517 1519 1522 1525 1529 1530 1532 1536 1538 1541 1542 1545 1547 1549 1551 1553 1555 1558 1560
1481 1482 1483 1484 1486 1487 1487 1487 1488 1487 1488 1489 1490 1492 1494 1496 1497 1498 1499 1500 1503 1505 1507 1509 1512 1515 1516 1519 1523 1526 1529 1532 1536 1535 1538 1541 1544 1547 1548 1551 1554 1556 1559
1476 1477 1478 1479 1481 1482 1481 1482 1483 1484 1484 1484 1486 1488 1490 1491 1493 1494 1494 1495 1498 1500 1501 1504 1506 1506 1511 1514 1518 1522 1526 1523 1532 1534 1532 1537 1540 1543 1546 1548 1551 1554 1557
1469 1471 1473 1475 1476 1477 1477 1478 1478 1479 1480 1479 1481 1483 1485 1487 1488 1489 1491 1492 1493 1495 1498 1499 1502 1502 1503 1507 1511 1515 1518 1522 1527 1531 1530 1532 1536 1540 1543 1545 1548 1551 1554
1463 1465 1468 1470 1471 1472 1472 1473 1475 1476 1474 1476 1476 1478 1480 1482 1483 1484 1486 1488 1489 1491 1492 1494 1497 1498 1501 1502 1503 1511 1511 1518 1522 1518 1527 1529 1530 1536 1540 1541 1545 1549 1551
1460 1461 1463 1465 1468 1468 1467 1468 1470 1472 1472 1471 1472 1472 1474 1476 1478 1479 1481 1482 1484 1485 1487 1489 1491 1493 1495 1497 1498 1501 1506 1508 1512 1516 1521 1521 1522 1529 1536 1538 1541 1545 1548
1457 1457 1460 1462 1463 1463 1462 1465 1467 1468 1469 1468 1469 1470 1470 1470 1472 1474 1475 1476 1477 1479 1480 1483 1486 1487 1490 1490 1494 1495 1498 1498 1504 1508 1513 1515 1519 1523 1529 1533 1537 1542 1544
1454 1455 1458 1459 1459 1459 1460 1461 1463 1463 1465 1465 1466 1466 1466 1467 1467 1467 1467 1469 1469 1471 1473 1476 1478 1481 1482 1485 1486 1489 1492 1492 1494 1499 1500 1507 1513 1519 1517 1524 1533 1537 1539
1453 1454 1455 1455 1456 1457 1458 1459 1459 1458 1460 1460 1460 1460 1461 1462 1461 1461 1461 1461 1462 1463 1465 1468 1471 1473 1475 1477 1479 1482 1484 1486 1487 1492 1495 1500 1505 1510 1512 1517 1525 1530 1533
Wind_Speed
6 5 9 8 7 7 10 9 8 6 7 7 7 7 7 8 9 8 8 8 7 6 6 6 6 6 5 7 7 10 11 12 12 13 13 13 13 14 15 15 13 17 20
8 5 9 9 8 7 6 8 8 7 6 6 7 8 8 7 7 8 7 6 6 7 8 7 8 8 8 8 9 11 10 11 11 12 12 12 13 14 15 16 10 17 18
9 4 7 7 8 8 7 6 7 8 7 7 7 9 8 7 7 7 6 5 6 7 8 8 8 8 9 7 7 9 11 11 11 14 14 8 12 14 14 14 12 16 17
9 9 5 6 6 7 8 8 8 8 8 8 8 9 9 8 7 6 5 5 6 7 8 8 8 9 7 4 5 7 9 10 11 15 12 5 8 12 12 13 16 16 17
8 7 5 4 3 6 7 9 9 10 9 9 10 11 11 10 10 7 6 7 7 6 7 10 9 8 7 6 6 10 10 10 11 12 9 8 8 11 13 10 15 12 14
7 5 4 2 2 3 3 7 9 10 10 10 11 13 12 12 12 10 9 10 9 7 7 9 9 8 7 7 8 10 11 10 10 8 10 13 11 12 14 14 17 15 15
6 4 2 3 3 5 7 7 7 10 12 12 11 12 13 14 13 11 10 11 11 9 9 8 8 7 7 8 9 10 10 10 11 7 9 14 12 12 12 11 9 8 7
5 4 2 4 4 4 6 9 10 9 11 13 14 13 13 14 14 13 13 13 13 11 10 10 9 8 9 9 9 9 10 11 11 11 12 15 13 10 9 8 6 4 3
6 6 6 6 6 6 6 7 9 11 12 13 14 15 15 15 15 14 15 14 14 12 11 11 11 10 11 10 10 8 8 10 10 11 14 15 13 8 5 3 4 5 6
8 8 6 7 7 7 7 10 10 11 13 14 14 16 17 17 17 17 16 16 16 14 14 14 12 13 13 12 10 8 8 10 11 12 14 12 10 9 6 5 8 9 10
13 11 11 10 9 9 10 13 11 12 13 15 16 16 17 19 19 20 20 18 18 16 17 16 14 15 16 14 12 10 10 10 11 11 14 11 10 8 7 8 8 9 9
12 10 13 13 13 12 12 12 10 11 12 9 13 15 17 16 17 20 19 20 18 18 18 19 17 16 17 17 16 14 14 10 12 10 11 12 12 10 10 10 9 8 8
13 13 15 15 15 14 13 14 11 9 9 9 12 13 17 16 21 23 21 23 21 19 21 22 22 21 20 16 13 18 15 12 14 12 15 16 12 12 12 11 6 6 12
18 17 16 16 15 14 14 14 13 12 11 11 11 13 15 18 22 24 24 22 22 22 24 24 27 26 22 21 17 15 15 14 14 13 17 19 18 14 13 11 8 9 16
16 15 16 16 16 16 16 15 15 15 15 16 15 12 13 23 20 20 21 22 22 22 24 27 28 29 27 25 20 18 17 17 15 15 15 16 17 13 13 13 9 13 17
16 15 15 17 17 17 16 16 16 16 17 17 18 18 18 14 17 25 21 22 23 23 23 26 29 30 31 29 25 20 20 19 17 16 14 15 18 14 14 15 13 17 19
18 16 17 16 16 17 17 18 18 18 18 19 18 18 19 20 18 15 22 25 25 25 24 24 26 29 33 33 31 27 23 21 20 18 18 14 18 16 15 16 15 15 19
21 19 19 18 17 17 18 19 19 19 18 18 17 15 18 21 21 21 23 25 27 24 26 25 27 31 33 34 36 30 27 25 23 20 19 17 17 19 17 18 18 17 17
23 23 22 20 19 18 19 20 19 19 17 17 17 17 17 19 20 20 21 21 20 28 22 27 32 32 35 35 34 30 30 28 24 22 21 20 19 17 19 20 22 20 20
23 23 24 22 20 20 19 19 18 19 18 18 19 20 20 19 18 19 19 18 19 19 26 23 32 34 36 34 35 34 29 29 26 26 23 22 23 20 20 20 25 24 24
24 25 24 22 21 20 19 17 20 20 19 19 20 21 22 22 21 19 16 16 18 19 19 29 25 34 35 35 35 35 33 28 27 27 25 24 24 22 20 22 27 26 26
24 24 23 22 19 18 18 16 16 13 17 16 18 21 23 23 24 23 22 22 20 19 22 22 25 23 28 35 36 28 23 29 32 27 29 25 25 24 24 24 26 27 27
18 19 19 17 16 14 15 15 16 18 18 16 16 18 18 20 21 22 22 24 24 24 24 22 24 27 27 29 39 26 14 12 27 29 33 31 26 31 26 26 25 28 26
14 16 15 13 12 11 13 12 14 15 16 13 11 11 14 16 18 20 23 24 28 29 27 27 27 29 30 32 38 39 36 22 19 20 36 37 37 34 31 26 27 27 26
12 12 12 10 10 10 11 12 15 16 16 14 12 14 14 15 17 21 22 22 25 31 31 29 29 31 32 34 36 39 37 31 28 28 25 38 39 40 35 36 33 30 29
7 7 9 10 11 11 12 13 16 18 19 19 20 21 23 22 22 25 25 24 26 26 32 33 32 33 36 36 38 41 45 40 34 34 26 37 44 43 39 37 34 33 31
Wind_Direction
127 203 161 150 142 151 161 166 156 160 169 176 180 171 164 143 138 134 128 120 125 139 151 152 151 143 138 119 109 121 119 117 116 117 117 117 116 115 110 97 107 114 121
122 163 168 154 158 155 164 174 181 175 174 185 194 193 181 160 152 149 140 130 124 127 131 139 139 138 135 111 114 124 123 122 122 118 117 118 122 127 124 116 140 119 124
115 127 162 163 170 179 185 187 187 191 195 195 198 200 199 184 181 166 158 149 134 138 144 157 153 151 148 127 120 132 134 129 117 101 90 94 130 134 133 135 129 127 124
123 111 143 180 186 190 200 206 208 213 206 206 203 206 204 202 200 179 183 177 162 158 167 176 178 176 173 178 177 166 150 141 123 101 91 133 129 129 136 135 128 127 127
130 131 153 129 148 207 208 212 215 216 221 217 218 218 213 216 213 218 214 198 185 180 178 193 196 201 217 218 193 181 168 155 143 103 136 142 150 127 141 126 150 132 131
142 139 170 173 222 214 223 232 224 226 226 228 223 225 224 222 225 225 215 208 193 198 197 199 199 202 203 195 186 184 180 174 165 120 164 172 174 145 131 124 129 122 127
159 154 210 245 256 254 238 235 240 236 233 234 233 226 229 225 222 232 216 211 201 207 211 202 189 188 184 180 181 183 182 176 143 177 213 189 181 161 147 144 144 142 147
199 187 233 267 261 256 253 244 239 242 241 239 235 228 228 227 224 227 220 213 210 216 219 210 207 198 186 181 175 183 186 181 155 208 208 171 162 156 155 155 166 178 203
210 237 256 253 262 266 260 256 253 249 245 241 240 236 229 229 226 226 222 219 217 224 219 216 209 201 195 185 168 168 181 183 170 209 175 168 167 171 181 199 228 251 255
226 244 245 249 250 254 270 265 262 260 252 244 241 239 235 230 228 225 222 221 224 226 219 220 213 203 200 196 185 186 189 185 192 210 185 176 176 188 211 247 252 254 256
238 263 252 247 256 258 259 264 266 260 256 249 242 239 238 234 234 231 228 228 227 225 222 222 217 208 206 205 206 205 199 179 206 186 200 203 208 220 238 262 267 263 253
244 255 259 257 258 255 259 259 262 261 261 250 254 241 243 237 234 239 239 231 229 228 225 223 223 214 211 211 212 210 207 193 217 217 212 215 225 240 265 275 275 249 219
249 251 256 263 261 261 260 263 258 258 260 254 235 229 251 235 226 234 229 232 230 225 226 224 224 221 212 199 217 218 205 204 210 226 229 247 245 247 257 269 245 220 166
259 259 256 261 261 261 259 266 265 248 248 249 254 235 230 252 237 229 230 237 236 225 224 224 222 226 220 203 208 214 208 209 209 214 237 241 239 241 253 236 210 197 165
239 251 254 257 257 259 265 267 264 261 256 252 246 239 241 228 235 237 235 228 232 231 227 228 225 226 228 210 201 216 210 214 212 217 232 247 227 236 238 213 205 192 179
241 248 246 250 253 257 262 266 267 267 261 250 248 248 246 243 249 241 239 235 229 232 229 232 232 228 229 222 208 213 212 214 215 215 219 242 223 224 219 202 190 199 186
238 243 246 251 253 256 263 266 268 268 266 256 246 247 248 250 247 245 247 239 240 242 234 229 231 228 231 225 213 213 210 213 214 212 215 226 219 220 212 200 194 219 200
235 240 246 249 256 261 267 267 265 262 261 257 247 238 247 252 256 260 261 254 241 242 239 232 227 221 229 233 230 227 219 210 210 208 216 215 220 221 218 210 205 209 207
240 239 243 249 257 267 269 269 264 259 252 249 246 240 241 247 257 262 260 255 250 242 246 240 242 239 233 237 239 217 213 209 211 205 209 214 215 216 229 216 211 209 213
240 235 238 245 256 267 269 269 263 253 250 247 248 250 248 249 253 260 259 253 238 245 238 241 246 239 240 243 241 241 216 204 211 206 208 212 209 211 230 227 213 212 214
240 229 234 242 256 265 266 264 263 258 251 250 251 249 253 254 253 251 253 262 245 237 244 238 243 241 239 239 234 231 212 208 211 210 207 207 213 209 219 224 214 208 208
232 226 227 241 257 262 264 265 249 258 264 257 250 247 248 250 255 257 256 256 251 248 247 238 236 247 239 231 219 215 202 211 215 213 212 205 215 212 213 224 218 219 214
210 213 226 243 256 261 266 258 255 249 254 256 254 260 254 245 248 255 258 259 256 250 244 243 239 238 239 234 223 212 186 204 199 206 207 207 216 218 219 218 231 225 224
205 217 232 244 258 262 264 256 252 262 267 265 251 253 247 253 256 260 263 259 254 253 249 244 240 244 238 235 223 222 226 215 187 194 211 213 215 218 217 224 230 227 226
210 226 238 247 255 261 262 260 258 262 266 260 246 244 243 249 260 274 271 264 256 247 247 248 241 238 242 234 228 218 216 218 214 212 199 205 216 223 221 227 227 227 232
223 242 251 250 252 255 256 252 263 267 266 263 259 248 251 256 269 274 276 273 266 258 248 243 243 241 240 242 236 228 233 227 216 208 204 203 210 213 214 215 222 223 229